CW4517 Weather Reports


Display with metric or nautical units.
time (UTC)temp
F
wind
direction
speed
MPH
gust
MPH
rain 1hr
in
rain 24hr
in
rain mn
in
humidity
%
barometer
mb
20260506172829 54 282 5.0 12.0 0.00 0.00 0.00 43 1010.8
20260506172328 54 204 5.0 14.0 0.00 0.00 0.00 42 1010.8
20260506171823 54 286 5.0 14.0 0.00 0.00 0.00 41 1010.7
20260506171319 55 282 4.0 11.0 0.00 0.00 0.00 42 1010.7
20260506170811 54 258 4.0 10.0 0.00 0.00 0.00 45 1010.7
20260506170300 54 245 5.0 10.0 0.00 0.00 0.00 42 1010.4
20260506165759 54 236 5.0 15.0 0.00 0.00 0.00 42 1010.4
20260506165512 54 317 5.0 15.0 0.00 0.00 0.00 41 1010.4
20260506164745 54 300 5.0 10.0 0.00 0.00 0.00 43 1010.4
20260506164240 54 5 4.0 10.0 0.00 0.00 0.00 42 1010.4
20260506163729 54 338 4.0 10.0 0.00 0.00 0.00 43 1010.4
20260506163227 53 284 5.0 10.0 0.00 0.00 0.00 43 1010.3
20260506162950 54 205 5.0 10.0 0.00 0.00 0.00 42 1010.3
20260506162216 54 316 5.0 10.0 0.00 0.00 0.00 42 1010.3
20260506161710 54 338 5.0 10.0 0.00 0.00 0.00 44 1010.3
20260506161204 54 279 4.0 8.0 0.00 0.00 0.00 44 1010.3
20260506160659 53 241 4.0 9.0 0.00 0.00 0.00 44 1010.3
20260506160420 53 281 5.0 9.0 0.00 0.00 0.00 43 1010.3
20260506155917 53 261 4.0 9.0 0.00 0.00 0.00 44 1010.3
20260506155156 53 271 4.0 8.0 0.00 0.00 0.00 44 1010.3
20260506154657 53 11 4.0 8.0 0.00 0.00 0.00 45 1010.3
20260506154157 53 220 4.0 7.0 0.00 0.00 0.00 47 1010.3
20260506153657 53 209 3.0 8.0 0.00 0.00 0.00 47 1010.3
20260506153157 53 256 3.0 8.0 0.00 0.00 0.00 47 1010.3
20260506152921 53 263 3.0 7.0 0.00 0.00 0.00 47 1010.3
20260506152156 53 355 3.0 7.0 0.00 0.00 0.00 49 1010.3
20260506151656 52 265 3.0 8.0 0.00 0.00 0.00 48 1010.7
20260506151158 52 243 4.0 8.0 0.00 0.00 0.00 49 1010.7
20260506150652 52 243 3.0 8.0 0.00 0.00 0.00 48 1010.7
20260506150138 52 265 2.0 7.0 0.00 0.00 0.00 49 1010.5
20260506145627 52 238 2.0 5.0 0.00 0.00 0.00 49 1010.5
20260506145116 51 233 1.0 5.0 0.00 0.00 0.00 50 1010.5
20260506144602 51 161 1.0 5.0 0.00 0.00 0.00 52 1010.7
20260506144051 51 253 2.0 6.0 0.00 0.00 0.00 52 1010.7
20260506144038 52 234 2.0 6.0 0.00 0.00 0.00 51 1010.7
20260506143037 52 211 0.0 3.0 0.00 0.00 0.00 52 1010.7
20260506142531 51 114 0.0 2.0 0.00 0.00 0.00 51 1010.7
20260506142025 51 114 1.0 2.0 0.00 0.00 0.00 53 1010.7
20260506141515 51 114 1.0 2.0 0.00 0.00 0.00 52 1010.5
20260506141013 50 83 0.0 2.0 0.00 0.00 0.00 54 1010.5
20260506140508 50 83 0.0 0.0 0.00 0.00 0.00 54 1010.5
20260506140001 49 35 0.0 0.0 0.00 0.00 0.00 56 1010.3
20260506135456 49 35 0.0 0.0 0.00 0.00 0.00 57 1010.3
20260506135208 49 35 0.0 0.0 0.00 0.00 0.00 57 1010.2
20260506134444 48 35 0.0 2.0 0.00 0.00 0.00 57 1010.2
20260506134150 48 36 1.0 2.0 0.00 0.00 0.00 60 1010.2
20260506133431 48 35 1.0 3.0 0.00 0.00 0.00 60 1009.8
20260506132924 48 35 1.0 3.0 0.00 0.00 0.00 60 1009.8
20260506132418 48 29 1.0 4.0 0.00 0.00 0.00 60 1009.8
20260506131912 47 26 1.0 4.0 0.00 0.00 0.00 61 1009.7
20260506131413 47 62 1.0 4.0 0.00 0.00 0.00 63 1009.7
20260506130912 47 22 1.0 4.0 0.00 0.00 0.00 63 1009.7
20260506130636 47 28 1.0 3.0 0.00 0.00 0.00 65 1009.6
20260506125910 47 5 0.0 2.0 0.00 0.00 0.00 66 1009.6
20260506125410 46 5 0.0 2.0 0.00 0.00 0.00 67 1009.6
20260506124910 46 5 1.0 3.0 0.00 0.00 0.00 69 1009.5
20260506124408 46 5 1.0 4.0 0.00 0.00 0.00 69 1009.5
20260506123909 45 5 1.0 4.0 0.00 0.00 0.00 70 1009.5
20260506123628 45 30 0.0 3.0 0.00 0.00 0.00 70 1009.2
20260506122908 45 30 0.0 2.0 0.00 0.00 0.00 71 1009.2
20260506122408 44 34 0.0 0.0 0.00 0.00 0.00 71 1009.2
20260506121906 44 34 0.0 1.0 0.00 0.00 0.00 71 1009.2
20260506121404 44 34 0.0 2.0 0.00 0.00 0.00 71 1009.2
20260506120902 44 34 0.0 2.0 0.00 0.00 0.00 71 1009.2
20260506120626 43 34 1.0 2.0 0.00 0.00 0.00 70 1009.1
20260506115901 43 34 1.0 3.0 0.00 0.00 0.00 70 1009.1
20260506115400 43 34 1.0 3.0 0.00 0.00 0.00 70 1009.1
20260506115123 43 55 0.0 1.0 0.00 0.00 0.00 70 1008.8
20260506114401 43 55 0.0 2.0 0.00 0.00 0.00 71 1008.8
20260506113857 43 55 0.0 2.0 0.00 0.00 0.00 70 1008.8
20260506113350 43 55 0.0 2.0 0.00 0.00 0.00 69 1008.6
20260506112842 43 55 0.0 2.0 0.00 0.00 0.00 69 1008.6
20260506112339 43 55 0.0 2.0 0.00 0.00 0.00 69 1008.6
20260506111830 42 55 0.0 2.0 0.00 0.00 0.00 69 1008.5
20260506111326 42 55 0.0 2.0 0.00 0.00 0.00 69 1008.5
20260506110814 42 55 0.0 2.0 0.00 0.00 0.00 70 1008.5
20260506110303 42 55 0.0 1.0 0.00 0.00 0.00 70 1008.3
20260506105752 42 55 0.0 1.0 0.00 0.00 0.00 71 1008.3
20260506105238 42 55 0.0 0.0 0.00 0.00 0.00 71 1008.3
20260506104727 42 55 0.0 0.0 0.00 0.00 0.00 70 1008.2
20260506104215 42 55 0.0 0.0 0.00 0.00 0.00 70 1008.2
20260506103702 42 55 1.0 2.0 0.00 0.00 0.00 70 1008.2
20260506103150 42 55 1.0 3.0 0.00 0.00 0.00 70 1007.8
20260506102640 42 55 0.0 3.0 0.00 0.00 0.00 69 1007.8
20260506102126 42 55 1.0 3.0 0.00 0.00 0.00 69 1007.8
20260506101615 42 55 1.0 3.0 0.00 0.00 0.00 69 1007.6
20260506101109 43 55 1.0 3.0 0.00 0.00 0.00 69 1007.6
20260506100604 43 55 1.0 3.0 0.00 0.00 0.00 69 1007.6
20260506100050 43 48 0.0 2.0 0.00 0.00 0.00 69 1007.7
20260506095550 43 48 0.0 2.0 0.00 0.00 0.00 68 1007.7
20260506095045 43 38 0.0 0.0 0.00 0.00 0.00 68 1007.7
20260506094537 43 38 0.0 0.0 0.00 0.00 0.00 68 1007.8
20260506094033 43 38 0.0 2.0 0.00 0.00 0.00 68 1007.8
20260506093520 43 38 0.0 3.0 0.00 0.00 0.00 67 1007.8
20260506093020 44 57 1.0 2.0 0.00 0.00 0.00 67 1007.8
20260506092515 44 58 1.0 2.0 0.00 0.00 0.00 67 1007.8
20260506092008 44 57 0.0 2.0 0.00 0.00 0.00 66 1007.8
20260506091504 44 56 0.0 2.0 0.00 0.00 0.00 66 1007.7
20260506090956 44 57 0.0 2.0 0.00 0.00 0.00 65 1007.7
20260506090716 44 56 0.0 2.0 0.00 0.00 0.00 65 1007.7
20260506085946 44 56 1.0 2.0 0.00 0.00 0.00 65 1007.7
20260506085439 44 56 1.0 2.0 0.00 0.00 0.00 64 1007.7
20260506085152 45 59 1.0 3.0 0.00 0.00 0.00 64 1007.6
20260506084426 45 59 1.0 5.0 0.00 0.00 0.00 64 1007.6
20260506083921 45 67 1.0 5.0 0.00 0.00 0.00 63 1007.6
20260506083628 45 46 1.0 3.0 0.00 0.00 0.00 62 1007.6
20260506082908 45 34 1.0 3.0 0.00 0.00 0.00 62 1007.6
20260506082402 46 32 1.0 3.0 0.00 0.00 0.00 61 1007.6
20260506081855 46 48 2.0 7.0 0.00 0.00 0.00 60 1007.5
20260506081351 46 49 2.0 7.0 0.00 0.00 0.00 60 1007.5
20260506080847 46 60 3.0 8.0 0.00 0.00 0.00 60 1007.5
20260506080339 46 56 3.0 8.0 0.00 0.00 0.00 59 1007.3
20260506073018 47 336 3.0 7.0 0.00 0.00 0.00 58 1006.7
20260506072249 47 5 3.0 7.0 0.00 0.00 0.00 58 1006.7
20260506071743 47 5 3.0 7.0 0.00 0.00 0.00 58 1006.6
20260506071505 47 355 3.0 6.0 0.00 0.00 0.00 58 1006.6
20260506070727 47 355 3.0 6.0 0.00 0.00 0.00 58 1006.6
20260506070226 47 355 2.0 4.0 0.00 0.00 0.00 59 1006.6
20260506062147 48 14 1.0 5.0 0.00 0.00 0.00 60 1006.6
20260506061647 48 0 2.0 5.0 0.00 0.00 0.00 60 1006.6
20260506061149 49 355 2.0 4.0 0.00 0.00 0.00 59 1006.6
20260506060649 49 9 2.0 4.0 0.00 0.00 0.00 59 1006.6
20260506060147 49 26 1.0 4.0 0.00 0.00 0.00 59 1006.8
20260506051048 50 270 1.0 5.0 0.00 0.00 0.00 58 1006.3
20260506050549 50 314 1.0 5.0 0.00 0.00 0.00 58 1006.3
20260506045023 50 277 1.0 3.0 0.00 0.00 0.00 58 1006.1
20260506044518 51 262 1.0 3.0 0.00 0.00 0.00 58 1006.4
20260506044005 51 261 0.0 2.0 0.00 0.00 0.00 58 1006.4
20260506043505 51 257 0.0 3.0 0.00 0.00 0.00 59 1006.4
20260506043219 51 257 1.0 3.0 0.00 0.00 0.00 58 1006.5
20260506042939 51 292 0.0 2.0 0.00 0.00 0.00 57 1006.5
20260506041947 51 292 0.0 2.0 0.00 0.00 0.00 56 1006.6
20260506041441 51 268 0.0 0.0 0.00 0.00 0.00 57 1006.6
20260506040937 51 263 0.0 0.0 0.00 0.00 0.00 57 1006.6
20260506040424 51 255 0.0 0.0 0.00 0.00 0.00 57 1006.7
20260506040152 51 281 0.0 2.0 0.00 0.00 0.00 57 1006.7
20260506035419 51 281 1.0 2.0 0.00 0.00 0.00 58 1006.7
20260506034911 51 282 1.0 3.0 0.00 0.00 0.00 56 1006.6
20260506034406 51 290 1.0 3.0 0.00 0.00 0.00 55 1006.6
20260506033856 51 290 1.0 2.0 0.00 0.00 0.00 56 1006.6
20260506033353 51 291 1.0 3.0 0.00 0.00 0.00 54 1006.5
20260506032848 51 293 0.0 3.0 0.00 0.00 0.00 55 1006.5
20260506032609 51 277 0.0 0.0 0.00 0.00 0.00 56 1006.5
20260506031836 51 277 0.0 0.0 0.00 0.00 0.00 54 1006.5
20260506031329 51 277 0.0 0.0 0.00 0.00 0.00 54 1006.5
20260506031050 51 277 0.0 0.0 0.00 0.00 0.00 55 1006.5
20260506030313 51 277 0.0 0.0 0.00 0.00 0.00 54 1006.1
20260506025812 51 277 0.0 0.0 0.00 0.00 0.00 53 1006.1
20260506025306 52 277 0.0 0.0 0.00 0.00 0.00 53 1006.1
20260506024759 52 277 0.0 2.0 0.00 0.00 0.00 53 1006.0
20260506024515 52 277 1.0 3.0 0.00 0.00 0.00 52 1006.0
20260506023744 52 277 1.0 3.0 0.00 0.00 0.00 52 1006.0
20260506023231 52 277 1.0 4.0 0.00 0.00 0.00 52 1006.0
20260506022731 52 277 1.0 4.0 0.00 0.00 0.00 52 1006.0
20260506022226 52 279 0.0 3.0 0.00 0.00 0.00 52 1006.0
20260506021718 52 279 0.0 3.0 0.00 0.00 0.00 52 1005.8
20260506021214 52 284 0.0 2.0 0.00 0.00 0.00 51 1005.8
20260506020700 52 292 1.0 3.0 0.00 0.00 0.00 52 1005.8
20260506020202 52 292 1.0 3.0 0.00 0.00 0.00 51 1005.7
20260506015655 52 292 0.0 0.0 0.00 0.00 0.00 51 1005.7
20260506015149 52 292 0.0 0.0 0.00 0.00 0.00 51 1005.7
20260506014644 53 292 0.0 0.0 0.00 0.00 0.00 51 1005.5
20260506014132 53 292 0.0 3.0 0.00 0.00 0.00 51 1005.5
20260506013849 53 292 1.0 3.0 0.00 0.00 0.00 50 1005.5
20260506013116 53 321 1.0 3.0 0.00 0.00 0.00 50 1005.2
20260506012830 53 298 1.0 3.0 0.00 0.00 0.00 50 1005.2
20260506012106 53 298 0.0 2.0 0.00 0.00 0.00 50 1005.2
20260506011827 53 297 0.0 4.0 0.00 0.00 0.00 49 1005.2
20260506011106 53 297 1.0 4.0 0.00 0.00 0.00 50 1005.2
20260506010605 53 284 1.0 4.0 0.00 0.00 0.00 49 1005.2
20260506010104 53 275 0.0 4.0 0.00 0.00 0.00 49 1005.0
20260506010048 53 287 0.0 4.0 0.00 0.00 0.00 48 1005.0
20260506005103 53 288 0.0 2.0 0.00 0.00 0.00 48 1005.0
20260506004604 53 288 1.0 3.0 0.00 0.00 0.00 48 1005.0
20260506004103 53 292 1.0 4.0 0.00 0.00 0.00 46 1005.0
20260506003555 53 296 1.0 4.0 0.00 0.00 0.00 47 1005.0
20260506003051 54 257 1.0 3.0 0.00 0.00 0.00 46 1004.7
20260506002541 54 258 1.0 4.0 0.00 0.00 0.00 45 1004.7
20260506002039 54 258 1.0 4.0 0.00 0.00 0.00 45 1004.7
20260506001532 54 259 2.0 4.0 0.00 0.00 0.00 45 1004.6
20260506001027 54 281 1.0 4.0 0.00 0.00 0.00 44 1004.6
20260506000520 54 340 1.0 4.0 0.00 0.00 0.00 45 1004.6
20260506000014 54 298 1.0 5.0 0.00 0.00 0.00 44 1004.5
20260505235507 54 310 1.0 5.0 0.00 0.00 0.00 44 1004.5
20260505234956 54 355 2.0 6.0 0.00 0.00 0.00 44 1004.5
20260505234455 54 328 3.0 6.0 0.00 0.00 0.00 43 1004.9
20260505233950 54 313 2.0 6.0 0.00 0.00 0.00 42 1004.9
20260505233444 54 332 2.0 6.0 0.00 0.00 0.00 42 1004.7
20260505232939 54 288 3.0 6.0 0.00 0.00 0.00 42 1004.7
20260505232428 54 294 2.0 6.0 0.00 0.00 0.00 41 1004.7
20260505231925 54 290 3.0 8.0 0.00 0.00 0.00 41 1004.9
20260505231419 54 314 3.0 10.0 0.00 0.00 0.00 41 1004.9
20260505231135 55 298 3.0 10.0 0.00 0.00 0.00 39 1004.9
20260505230407 55 293 3.0 8.0 0.00 0.00 0.00 40 1005.0
20260505225901 55 342 3.0 8.0 0.00 0.00 0.00 40 1005.0
20260505225356 55 254 3.0 9.0 0.00 0.00 0.00 39 1005.0
20260505224845 55 257 3.0 10.0 0.00 0.00 0.00 41 1005.2
20260505224343 55 340 3.0 10.0 0.00 0.00 0.00 41 1005.2
20260505223839 55 316 3.0 8.0 0.00 0.00 0.00 40 1005.2
20260505223550 54 273 4.0 8.0 0.00 0.00 0.00 40 1005.1
20260505222825 54 284 4.0 9.0 0.00 0.00 0.00 40 1005.1
20260505222315 55 299 3.0 7.0 0.00 0.00 0.00 41 1005.1
20260505221813 54 291 3.0 7.0 0.00 0.00 0.00 42 1005.1
20260505221306 54 292 3.0 6.0 0.00 0.00 0.00 44 1005.1
20260505220800 54 268 3.0 7.0 0.00 0.00 0.00 42 1005.1
20260505220517 54 269 4.0 7.0 0.00 0.00 0.00 42 1005.2
20260505220005 54 250 4.0 8.0 0.00 0.00 0.00 41 1005.2
20260505215244 54 281 4.0 9.0 0.00 0.00 0.00 42 1005.2
20260505214738 54 230 4.0 9.0 0.00 0.00 0.00 41 1005.5
20260505214716 54 274 3.0 9.0 0.00 0.00 0.00 42 1005.5
20260505213727 54 292 3.0 9.0 0.00 0.00 0.00 41 1005.5
20260505213218 54 328 4.0 9.0 0.00 0.00 0.00 42 1005.4
20260505212713 54 273 3.0 7.0 0.00 0.00 0.00 42 1005.4
20260505212202 54 271 3.0 6.0 0.00 0.00 0.00 41 1005.4
20260505211701 54 265 4.0 9.0 0.00 0.00 0.00 41 1005.4
20260505211156 54 226 4.0 9.0 0.00 0.00 0.00 42 1005.4
20260505210656 54 236 4.0 12.0 0.00 0.00 0.00 43 1005.4
20260505210157 54 301 5.0 12.0 0.00 0.00 0.00 43 1005.5
20260505205656 54 280 4.0 9.0 0.00 0.00 0.00 45 1005.5
20260505205157 54 306 3.0 7.0 0.00 0.00 0.00 48 1005.5
20260505204918 54 287 3.0 7.0 0.00 0.00 0.00 47 1005.6
20260505204156 54 242 3.0 6.0 0.00 0.00 0.00 48 1005.6
20260505203659 54 264 3.0 9.0 0.00 0.00 0.00 47 1005.6
20260505203159 54 250 4.0 10.0 0.00 0.00 0.00 47 1005.9
20260505202654 54 273 4.0 10.0 0.00 0.00 0.00 47 1005.9
20260505202407 54 281 3.0 10.0 0.00 0.00 0.00 47 1005.9
20260505201850 54 286 4.0 10.0 0.00 0.00 0.00 45 1005.7
20260505201127 54 277 4.0 10.0 0.00 0.00 0.00 46 1005.7
20260505200620 54 301 5.0 11.0 0.00 0.00 0.00 46 1005.7
20260505200114 54 340 4.0 11.0 0.00 0.00 0.00 45 1005.5
20260505195607 55 302 3.0 9.0 0.00 0.00 0.00 46 1005.5
20260505195101 54 277 5.0 13.0 0.00 0.00 0.00 46 1005.5
20260505194556 54 279 5.0 13.0 0.00 0.00 0.00 45 1005.5
20260505194045 55 219 4.0 11.0 0.00 0.00 0.00 46 1005.5
20260505193543 55 259 3.0 8.0 0.00 0.00 0.00 45 1005.5
20260505193037 55 248 3.0 10.0 0.00 0.00 0.00 45 1005.7
20260505192531 55 288 4.0 10.0 0.00 0.00 0.00 45 1005.7
20260505192247 55 223 3.0 9.0 0.00 0.00 0.00 45 1005.7
20260505191520 55 10 3.0 7.0 0.00 0.00 0.00 47 1005.7
20260505191245 55 215 4.0 8.0 0.00 0.00 0.00 47 1005.7
20260505190508 55 269 4.0 9.0 0.00 0.00 0.00 51 1005.7
20260505190000 55 290 4.0 9.0 0.00 0.00 0.00 49 1005.8
20260505185454 55 237 3.0 7.0 0.00 0.00 0.00 51 1005.8
20260505184948 54 272 4.0 7.0 0.00 0.00 0.00 50 1006.0
20260505184443 54 286 4.0 7.0 0.00 0.00 0.00 52 1006.0
20260505183932 54 285 4.0 7.0 0.00 0.00 0.00 53 1006.0
20260505183422 54 235 4.0 7.0 0.00 0.00 0.00 54 1006.0
20260505182920 54 237 3.0 7.0 0.00 0.00 0.00 57 1006.0
20260505182416 54 288 4.0 9.0 0.00 0.00 0.00 57 1006.0
20260505181910 53 320 5.0 9.0 0.00 0.00 0.00 57 1005.9
20260505181404 54 283 4.0 8.0 0.00 0.00 0.00 57 1005.9
20260505180853 54 259 4.0 8.0 0.00 0.00 0.00 56 1005.9
20260505180352 54 250 4.0 9.0 0.00 0.00 0.00 57 1005.6
20260505175846 54 289 3.0 9.0 0.00 0.00 0.00 57 1005.6
20260505175340 54 229 4.0 8.0 0.00 0.00 0.00 56 1005.6
20260505174834 54 250 4.0 12.0 0.00 0.00 0.00 56 1005.6
20260505174323 54 351 3.0 12.0 0.00 0.00 0.00 56 1005.6
20260505173821 54 316 4.0 12.0 0.00 0.00 0.00 58 1005.6
20260505173316 53 286 4.0 12.0 0.00 0.00 0.00 58 1005.6